User: anonymous   Login
Location: Unspecified
(0.0000°N, 0.0000°E)
Time: 08:51:46
(UTC+00:00)
Language:

Galileo 6 - Orbit

View from above orbital plane
View from above orbital plane
View from above satellite
View from above satellite

Ground track
Ground track

The orbit data is extracted from the following two-line orbital elements,

1 40129U 14050B   17177.49142461 -.00000100 +00000-0 +00000-0 0  9992
2 40129 050.3657 043.8365 1626931 064.8679 311.2013 01.85518938019673
Epoch (UTC): 26 June 2017 11:47:39
Eccentricity: 0.1626931
inclination: 50.3657°
perigee height: 17047 km
apogee height: 26151 km
right ascension of ascending node: 43.8365°
argument of perigee: 64.8679°
revolutions per day: 1.85518938
mean anomaly at epoch: 311.2013°
orbit number at epoch: 1967

The dashed part of the orbit path shows where the satellite is in the earth's shadow,  

DLR